Temperature
14 13 13 12 12 11 11 11 10 10 10 10 10 9 9 9 9 9 8 8 8 8 7 7 7 6 6 5 5 4 3 2 2 3 3 2 2 2 1 1 0 -0 -0
14 13 13 12 11 11 11 10 10 10 10 9 9 9 9 9 9 8 8 8 8 7 7 7 6 6 5 5 4 4 3 3 2 2 2 2 1 1 1 0 -0 -1 -1
13 13 12 11 11 11 11 10 10 10 9 9 9 9 9 9 8 8 8 8 7 7 7 6 6 5 5 4 4 3 3 2 2 1 1 1 1 0 -0 -0 -1 -1 -1
13 12 12 11 11 11 10 10 10 9 9 9 9 9 8 8 8 8 7 7 7 7 6 6 5 5 4 4 3 3 2 2 1 1 0 0 0 -0 -1 -1 -2 -2 -2
12 12 12 11 11 10 10 10 9 9 9 9 8 8 8 8 8 7 7 7 6 6 6 5 5 4 4 3 2 2 1 1 1 0 -0 -0 -1 -1 -2 -2 -3 -3 -3
12 12 11 11 10 10 10 9 9 9 9 8 8 8 8 7 7 7 6 6 6 5 5 5 4 3 3 2 2 1 1 0 -0 -1 -1 -1 -1 -2 -2 -3 -3 -4 -4
12 12 11 10 10 10 9 9 9 8 8 8 8 7 7 7 7 6 6 5 5 5 4 4 3 3 2 2 1 1 0 -0 -1 -1 -2 -2 -2 -3 -3 -4 -4 -4 -4
12 11 11 10 9 9 9 8 8 8 8 8 7 7 7 6 6 6 5 5 4 4 3 3 3 2 1 1 0 0 -0 -0 -1 -1 -2 -2 -3 -3 -4 -4 -5 -5 -5
11 11 10 10 9 9 8 8 8 7 7 7 7 6 6 6 5 5 4 4 3 3 3 2 2 1 1 -0 -0 -1 -1 -1 -1 -2 -2 -3 -3 -4 -4 -5 -5 -5 -5
11 11 10 9 9 8 8 7 7 7 7 6 6 6 5 5 5 4 3 3 3 2 2 1 1 0 -0 -1 -1 -2 -2 -2 -2 -3 -3 -3 -4 -4 -5 -5 -5 -6 -6
11 10 9 9 8 8 7 7 6 6 6 5 5 5 5 4 4 3 3 2 2 1 1 1 0 -0 -1 -1 -2 -2 -3 -3 -3 -4 -4 -4 -4 -5 -5 -5 -6 -6 -6
10 9 9 8 8 7 7 6 6 5 5 5 4 4 4 3 3 2 2 1 1 0 0 -0 -1 -1 -2 -2 -3 -3 -3 -4 -4 -4 -5 -5 -5 -5 -6 -6 -6 -7 -7
9 9 8 8 7 7 6 6 5 5 4 4 4 3 3 3 2 2 1 1 0 -0 -1 -1 -2 -2 -3 -3 -3 -4 -4 -5 -5 -5 -5 -6 -6 -6 -6 -6 -7 -7 -7
9 8 7 7 7 6 5 5 4 4 4 3 3 3 2 2 1 1 0 -0 -1 -1 -2 -2 -2 -3 -3 -4 -4 -4 -5 -5 -6 -6 -6 -6 -7 -7 -7 -7 -7 -7 -7
8 7 7 6 6 5 5 4 4 3 3 2 2 2 1 1 1 -0 -1 -1 -2 -2 -3 -3 -3 -3 -4 -4 -5 -5 -6 -6 -6 -7 -7 -7 -7 -7 -7 -8 -8 -8 -8
7 7 6 6 5 5 4 4 3 3 2 2 1 1 0 -0 -1 -1 -2 -2 -3 -3 -3 -4 -4 -4 -5 -5 -6 -6 -6 -7 -7 -7 -8 -8 -8 -8 -8 -8 -8 -8 -8
7 6 6 5 4 4 3 3 2 2 2 1 1 0 -0 -1 -1 -2 -2 -3 -3 -4 -4 -4 -5 -5 -5 -6 -6 -7 -7 -7 -8 -8 -8 -8 -8 -8 -9 -9 -9 -9 -9
6 5 5 4 4 3 3 2 2 1 1 1 0 -0 -1 -1 -2 -2 -3 -4 -4 -4 -5 -5 -5 -6 -6 -7 -7 -8 -8 -8 -8 -8 -8 -9 -9 -9 -9 -9 -9 -9 -9
5 4 4 3 3 2 2 1 1 0 -0 -0 -1 -1 -1 -2 -3 -3 -4 -4 -5 -5 -5 -6 -6 -7 -7 -7 -8 -8 -8 -9 -9 -9 -9 -9 -9 -9 -9 -9 -9 -9 -9
4 3 3 2 2 1 1 0 -0 -1 -1 -1 -2 -2 -3 -3 -3 -4 -4 -5 -5 -6 -6 -6 -7 -7 -8 -8 -8 -9 -9 -9 -9 -9 -9 -10 -10 -10 -10 -10 -10 -10 -10
3 3 2 2 1 1 0 -0 -1 -1 -2 -2 -3 -3 -4 -4 -5 -5 -5 -6 -6 -6 -7 -7 -7 -8 -8 -8 -9 -9 -9 -10 -10 -10 -10 -10 -10 -10 -10 -10 -10 -10 -10
2 2 1 1 0 -0 -1 -1 -2 -2 -3 -3 -3 -4 -4 -5 -5 -6 -6 -6 -7 -7 -7 -8 -8 -8 -9 -9 -9 -10 -10 -10 -10 -10 -10 -10 -10 -10 -10 -10 -10 -10 -10
1 1 0 -0 -1 -1 -2 -2 -3 -3 -4 -4 -4 -5 -5 -5 -6 -6 -6 -7 -7 -7 -8 -8 -9 -9 -9 -10 -10 -10 -10 -10 -10 -10 -10 -10 -10 -10 -10 -10 -10 -10 -10
0 -0 -1 -1 -2 -2 -3 -3 -4 -4 -4 -5 -5 -5 -6 -6 -6 -7 -7 -7 -8 -8 -8 -9 -9 -9 -10 -10 -10 -10 -10 -11 -11 -11 -11 -11 -11 -11 -11 -10 -10 -11 -11
-1 -1 -2 -2 -3 -3 -4 -4 -4 -5 -5 -5 -6 -6 -6 -6 -7 -7 -7 -8 -8 -8 -9 -9 -9 -10 -10 -10 -10 -10 -11 -11 -11 -11 -11 -11 -11 -11 -11 -11 -11 -11 -11
-2 -3 -3 -3 -4 -4 -5 -5 -5 -5 -6 -6 -6 -6 -7 -7 -7 -7 -8 -8 -8 -9 -9 -9 -10 -10 -10 -10 -10 -11 -11 -11 -11 -11 -11 -11 -11 -11 -11 -11 -11 -11 -11
Wind_Speed
11 11 11 11 11 11 12 12 11 10 11 12 12 11 11 10 9 9 8 8 8 7 6 7 8 6 5 5 4 4 5 5 8 7 5 4 4 6 10 12 13 14 15
10 10 10 10 10 11 11 11 11 12 11 12 11 11 10 10 10 10 9 9 9 9 8 7 8 6 6 5 5 6 6 6 7 10 6 5 6 6 7 7 10 12 13
9 10 9 10 10 11 11 10 11 11 11 10 11 11 11 10 10 10 10 9 9 9 9 9 8 7 8 6 7 7 6 6 6 7 8 5 5 5 5 6 7 8 12
9 10 10 11 10 10 9 10 10 11 11 11 11 10 10 9 9 9 9 8 8 8 8 9 9 9 9 8 7 8 7 6 6 7 8 6 5 5 4 6 7 5 7
10 10 10 9 8 8 8 9 9 10 10 10 9 9 8 8 8 9 9 9 8 8 8 8 8 10 11 9 7 7 6 6 6 6 8 6 6 5 5 5 8 7 7
10 10 8 8 8 8 9 9 9 8 8 8 9 9 8 8 10 13 10 8 8 8 8 8 8 9 12 14 15 14 10 8 7 7 7 8 9 7 7 7 8 9 7
9 8 8 9 8 8 8 8 8 8 7 8 8 7 8 8 11 12 12 7 7 8 8 7 7 7 10 7 11 15 14 16 15 10 9 10 9 8 7 8 8 9 9
8 8 8 8 8 7 8 8 7 6 7 7 7 7 6 7 9 10 10 6 6 7 7 8 8 7 7 8 7 8 9 10 12 9 9 10 9 8 8 9 9 9 7
9 8 8 9 8 8 8 7 6 5 5 5 5 6 6 6 8 9 8 5 5 7 6 6 7 7 12 13 8 8 9 9 13 17 17 16 17 17 13 6 6 7 9
9 8 8 8 9 8 8 6 5 5 5 5 4 5 6 6 7 9 8 4 5 5 5 6 10 11 13 14 9 8 10 10 8 8 10 12 11 12 15 8 6 7 8
7 7 7 7 7 7 6 5 5 4 4 4 4 3 4 5 6 8 9 5 6 5 5 5 7 13 14 15 13 8 12 11 7 6 6 6 6 6 6 7 6 6 8
7 7 6 6 5 5 6 5 5 5 4 3 3 3 3 4 5 7 9 8 7 5 6 6 7 12 14 15 12 13 16 13 5 5 5 5 5 6 6 6 8 8 9
8 7 6 6 5 5 6 6 4 4 4 3 3 3 3 3 4 7 9 9 9 6 6 9 11 13 12 9 12 14 12 6 5 5 6 6 5 6 5 5 6 6 7
8 7 6 6 5 4 4 4 4 4 4 3 3 4 3 3 4 4 4 5 7 7 6 9 12 11 8 8 9 7 5 5 5 6 6 5 4 4 4 4 4 4 4
8 6 6 5 5 4 3 3 4 4 5 5 5 4 4 5 6 7 5 4 4 5 4 3 2 3 3 4 4 5 4 4 5 4 5 5 5 5 5 4 4 3 4
7 6 5 4 4 3 3 1 1 1 2 3 3 3 4 6 7 8 9 9 10 9 5 3 4 4 5 5 5 5 4 5 5 5 5 5 6 5 5 4 4 4 4
7 6 5 4 4 3 3 2 1 2 2 2 3 4 5 6 7 8 9 9 9 8 4 4 5 5 5 5 5 5 5 5 5 5 5 5 5 5 5 5 4 3 4
7 6 5 4 4 3 3 2 2 2 2 3 4 5 6 7 7 8 8 6 4 4 4 5 5 5 5 5 5 5 5 5 4 5 5 5 4 4 4 4 4 4 3
6 4 4 4 3 3 2 2 2 2 2 3 3 4 6 7 7 8 6 3 4 5 5 5 5 5 5 5 5 5 5 5 5 5 4 5 4 4 4 4 4 5 4
5 6 5 4 3 2 2 2 2 2 3 3 4 4 3 3 3 4 3 4 4 5 5 6 5 5 5 5 5 5 5 5 5 5 5 5 4 4 5 5 4 3 3
4 4 4 3 2 2 2 3 3 3 3 4 4 5 6 4 4 5 5 5 5 6 6 6 5 5 5 5 5 5 6 5 5 5 5 5 4 4 4 4 4 3 2
4 3 3 2 2 2 2 2 3 3 4 5 4 5 9 5 4 5 5 6 5 5 5 5 5 5 5 5 5 5 6 6 5 5 5 5 4 4 4 3 3 2 2
4 3 2 2 2 2 2 2 3 3 4 5 5 5 5 5 5 6 6 6 5 5 5 5 6 5 5 5 6 5 6 6 6 5 5 5 5 4 4 4 4 3 3
3 3 2 2 2 2 2 3 3 4 5 5 5 5 5 5 6 6 6 6 6 5 5 5 6 7 8 7 6 7 7 8 7 6 7 6 5 4 4 4 4 4 3
3 2 2 2 2 2 3 3 4 4 5 6 6 6 6 6 6 6 6 6 6 6 7 6 6 7 8 9 8 8 11 13 12 8 6 6 6 6 5 5 4 3 3
2 2 2 2 2 3 3 4 5 5 6 6 6 6 6 7 7 7 6 6 6 6 7 6 8 9 9 9 10 12 14 14 14 12 6 5 6 6 5 5 5 4 4
Wind_Direction
189 189 189 190 187 186 190 193 190 187 184 186 188 189 190 192 190 192 198 194 201 210 209 211 222 216 217 220 215 213 214 208 248 271 253 258 262 269 286 287 286 284 286
188 186 189 186 184 188 192 191 187 187 188 188 187 190 193 194 193 196 201 201 204 211 216 215 225 221 225 226 223 227 228 220 233 268 277 267 258 262 268 275 287 286 283
183 185 187 187 188 193 193 188 186 187 187 188 188 193 197 197 197 201 203 206 210 215 214 216 223 220 232 235 233 236 238 240 230 253 274 268 266 267 275 277 276 280 286
183 187 191 193 193 192 188 185 185 185 186 190 193 197 198 197 200 203 204 209 215 219 219 220 222 221 230 236 240 240 241 244 244 254 268 274 269 269 266 277 287 271 277
183 190 196 191 186 181 181 182 182 185 188 188 190 195 195 197 204 202 205 209 214 223 227 228 230 233 238 243 248 246 241 247 252 258 268 277 275 276 272 271 285 286 273
186 192 187 179 178 179 180 178 178 182 183 182 190 193 197 207 212 211 209 211 215 221 231 237 241 245 252 260 266 267 260 253 254 255 264 269 274 270 271 274 284 293 291
185 184 179 176 178 179 175 174 180 183 181 188 194 195 205 215 215 217 217 212 217 224 229 236 247 248 256 253 266 273 273 271 269 266 264 266 272 271 273 277 274 278 279
177 176 173 171 173 170 169 177 180 179 185 191 197 200 207 220 219 222 220 213 221 230 232 234 240 249 251 256 253 258 259 263 266 265 257 262 262 263 259 268 273 277 270
176 177 175 171 169 169 175 180 176 175 185 191 192 195 205 222 222 223 218 209 225 237 239 237 242 248 262 269 266 263 269 269 274 275 274 277 283 288 289 287 283 288 291
181 176 168 166 168 174 178 174 166 172 182 181 191 197 204 220 229 231 225 212 228 240 243 243 251 259 267 271 263 259 267 270 269 276 278 281 282 285 290 281 269 277 284
162 151 153 160 165 166 160 156 156 159 162 176 195 211 215 225 234 236 236 224 225 237 245 247 251 267 273 275 274 263 269 279 268 263 267 270 273 272 273 269 258 255 269
137 140 147 151 149 144 145 148 150 153 163 181 196 229 235 235 235 241 243 246 250 239 245 246 253 271 276 279 280 279 285 291 283 274 272 273 273 271 268 266 262 256 251
132 138 141 137 136 141 148 151 150 156 169 189 198 226 247 243 245 251 254 257 259 254 253 266 274 278 282 281 282 288 292 287 278 275 275 272 264 263 266 273 274 270 267
137 139 139 138 136 135 142 151 159 172 182 195 210 229 245 253 252 249 247 255 263 266 269 273 281 286 285 284 288 290 280 270 274 270 274 273 272 269 268 268 273 277 279
135 136 135 136 141 143 146 165 176 193 192 198 212 211 224 247 254 261 262 250 246 253 273 268 269 274 269 269 272 271 266 272 279 269 273 279 279 275 274 267 259 262 262
137 139 140 140 140 141 140 93 9 233 239 238 242 242 248 266 284 280 280 282 285 285 287 266 262 259 259 262 267 269 265 264 261 263 269 272 275 274 276 273 258 252 262
143 145 142 142 146 148 152 161 247 337 333 292 283 279 280 288 290 288 288 289 287 289 275 261 261 260 261 261 261 262 265 264 260 260 266 268 270 271 275 278 272 265 267
134 139 142 147 152 157 166 177 191 220 281 296 300 300 300 299 298 296 296 301 290 282 258 259 263 265 263 261 261 262 263 264 261 259 261 261 262 267 271 273 267 259 266
132 137 138 142 147 155 162 175 198 218 243 273 295 305 306 305 301 296 299 269 262 265 261 262 262 263 262 260 260 259 255 258 259 255 256 256 254 254 261 264 260 267 272
129 137 138 141 146 153 169 192 214 228 244 258 268 276 291 293 281 282 270 256 256 261 261 262 263 262 259 258 259 257 257 257 257 252 253 254 251 248 251 253 250 253 256
133 139 136 135 159 180 196 213 222 230 243 256 264 273 281 272 261 264 265 260 257 260 261 262 263 262 259 256 255 254 254 257 254 250 251 249 243 246 248 247 243 240 246
137 143 153 166 180 196 214 220 226 237 247 259 271 280 286 278 262 263 264 264 259 255 255 258 260 256 252 250 252 254 253 254 253 248 245 241 236 241 245 238 231 231 233
140 148 160 176 192 229 254 237 242 248 256 262 269 275 275 268 267 267 266 265 263 262 260 257 259 262 260 256 250 245 247 249 246 242 241 239 233 233 231 229 221 220 227
150 162 176 194 210 221 237 250 255 261 264 267 270 272 271 270 270 270 268 267 266 265 262 259 258 258 260 262 262 257 254 254 250 240 233 232 228 228 224 221 218 218 224
157 172 187 204 221 236 248 256 261 265 268 272 272 273 273 272 273 273 270 268 267 267 266 264 264 262 261 261 262 262 264 266 264 252 225 219 222 220 218 216 214 212 213
165 185 204 220 233 242 249 257 263 266 267 271 271 270 271 273 273 273 270 267 266 266 265 265 261 259 261 264 265 267 271 271 268 265 239 208 212 217 212 211 209 207 200
Height
1457 1461 1464 1468 1471 1475 1478 1482 1485 1489 1492 1494 1497 1499 1501 1502 1504 1505 1506 1507 1507 1507 1507 1506 1505 1505 1503 1502 1501 1499 1497 1495 1490 1487 1487 1486 1483 1481 1479 1476 1473 1470 1467
1453 1456 1459 1463 1467 1470 1473 1477 1480 1483 1486 1489 1492 1494 1496 1497 1499 1500 1501 1501 1502 1501 1501 1501 1500 1499 1498 1497 1495 1493 1491 1489 1486 1481 1479 1478 1477 1475 1472 1469 1466 1463 1460
1449 1452 1455 1458 1462 1465 1468 1472 1475 1478 1481 1484 1486 1488 1490 1492 1493 1494 1495 1496 1496 1496 1496 1495 1494 1493 1491 1490 1489 1487 1485 1483 1480 1476 1472 1471 1469 1468 1464 1461 1459 1456 1453
1445 1447 1450 1453 1457 1460 1464 1467 1470 1473 1476 1478 1481 1483 1485 1487 1488 1489 1489 1490 1490 1490 1490 1489 1488 1487 1485 1484 1482 1480 1478 1476 1473 1470 1466 1464 1462 1460 1457 1454 1450 1448 1446
1440 1443 1446 1449 1453 1456 1459 1462 1465 1468 1471 1474 1476 1478 1479 1481 1482 1483 1483 1484 1484 1484 1483 1483 1482 1481 1479 1478 1476 1474 1472 1469 1467 1464 1460 1457 1455 1453 1450 1447 1443 1440 1437
1436 1438 1442 1445 1448 1451 1455 1458 1461 1463 1466 1468 1470 1472 1473 1474 1476 1477 1478 1478 1477 1477 1477 1476 1475 1474 1473 1471 1469 1468 1466 1463 1460 1457 1454 1451 1448 1447 1444 1441 1437 1433 1428
1432 1435 1438 1441 1444 1447 1450 1453 1456 1458 1461 1463 1464 1466 1467 1469 1470 1471 1471 1471 1471 1471 1470 1469 1468 1467 1466 1464 1462 1461 1459 1457 1455 1452 1448 1444 1442 1440 1437 1433 1430 1427 1423
1428 1431 1434 1437 1440 1443 1446 1449 1451 1454 1456 1457 1459 1460 1462 1463 1464 1465 1465 1465 1464 1464 1464 1463 1461 1460 1459 1457 1455 1452 1451 1449 1448 1445 1442 1438 1436 1433 1431 1427 1424 1420 1416
1425 1427 1430 1433 1436 1439 1441 1444 1446 1449 1450 1452 1453 1455 1456 1457 1458 1459 1459 1458 1457 1457 1457 1456 1455 1453 1452 1450 1448 1445 1442 1441 1440 1437 1435 1432 1429 1427 1425 1421 1417 1413 1408
1421 1424 1427 1429 1432 1434 1437 1439 1442 1444 1445 1447 1448 1449 1450 1451 1452 1453 1452 1451 1450 1450 1449 1449 1448 1446 1445 1443 1441 1437 1434 1432 1431 1428 1427 1424 1422 1420 1418 1415 1412 1408 1404
1418 1421 1423 1426 1428 1431 1433 1435 1437 1439 1440 1442 1443 1444 1445 1445 1446 1446 1446 1445 1444 1443 1442 1441 1440 1439 1437 1436 1434 1431 1428 1426 1423 1421 1418 1416 1414 1412 1410 1408 1406 1403 1399
1415 1417 1420 1422 1425 1427 1429 1431 1432 1434 1435 1436 1437 1438 1439 1439 1439 1439 1439 1438 1438 1436 1435 1434 1433 1432 1430 1428 1426 1424 1422 1420 1417 1414 1411 1409 1407 1405 1403 1401 1399 1396 1394
1411 1414 1416 1419 1421 1423 1425 1426 1428 1429 1430 1431 1432 1432 1433 1433 1433 1433 1433 1432 1431 1430 1428 1427 1426 1424 1422 1420 1419 1417 1415 1413 1410 1407 1405 1402 1401 1399 1396 1394 1392 1389 1387
1409 1411 1413 1415 1417 1419 1421 1422 1423 1424 1425 1426 1426 1427 1427 1427 1427 1427 1426 1426 1424 1423 1422 1420 1419 1417 1415 1413 1412 1410 1408 1406 1404 1401 1398 1396 1394 1392 1390 1388 1385 1383 1381
1406 1408 1410 1412 1414 1416 1417 1419 1419 1420 1421 1421 1421 1422 1421 1421 1421 1421 1420 1419 1418 1416 1415 1413 1411 1409 1408 1406 1404 1403 1401 1399 1397 1395 1392 1390 1388 1386 1384 1382 1380 1378 1376
1403 1405 1407 1409 1411 1412 1414 1415 1416 1417 1417 1417 1417 1417 1416 1416 1415 1415 1414 1412 1411 1410 1408 1405 1404 1402 1401 1399 1397 1396 1394 1393 1391 1389 1387 1384 1382 1380 1378 1377 1376 1374 1372
1400 1402 1404 1406 1408 1409 1410 1410 1411 1412 1413 1412 1412 1412 1411 1410 1409 1408 1407 1405 1404 1403 1401 1399 1397 1396 1394 1392 1391 1389 1388 1386 1385 1383 1381 1379 1377 1375 1374 1372 1371 1370 1368
1398 1400 1402 1403 1404 1405 1406 1406 1407 1407 1407 1407 1407 1406 1405 1404 1403 1402 1400 1399 1397 1396 1394 1392 1391 1389 1387 1386 1384 1383 1381 1380 1378 1377 1375 1374 1372 1371 1369 1368 1367 1366 1365
1395 1397 1398 1399 1400 1401 1402 1402 1402 1402 1402 1401 1401 1400 1399 1398 1397 1396 1394 1392 1390 1389 1387 1386 1384 1383 1381 1380 1378 1376 1375 1374 1372 1371 1370 1368 1367 1366 1365 1364 1363 1362 1361
1392 1394 1395 1396 1396 1397 1397 1397 1397 1397 1396 1395 1395 1394 1393 1391 1390 1389 1387 1386 1384 1382 1381 1379 1378 1376 1375 1373 1372 1370 1369 1367 1366 1365 1364 1363 1362 1361 1360 1360 1359 1358 1358
1389 1390 1391 1392 1392 1392 1392 1392 1392 1392 1391 1390 1389 1388 1387 1385 1383 1382 1381 1379 1377 1376 1374 1373 1371 1370 1368 1367 1365 1364 1362 1361 1360 1359 1359 1358 1357 1357 1356 1356 1355 1355 1355
1385 1386 1387 1387 1388 1388 1388 1388 1387 1386 1385 1384 1383 1382 1381 1379 1377 1376 1374 1372 1371 1369 1368 1366 1364 1363 1362 1360 1359 1357 1356 1355 1354 1354 1353 1353 1353 1352 1352 1352 1352 1352 1352
1382 1382 1383 1383 1383 1383 1383 1382 1382 1381 1380 1379 1377 1376 1374 1372 1371 1369 1367 1365 1364 1362 1361 1359 1357 1356 1355 1354 1352 1351 1350 1349 1349 1349 1348 1348 1348 1348 1348 1348 1348 1349 1349
1378 1378 1378 1378 1378 1378 1377 1377 1376 1375 1374 1372 1371 1369 1367 1366 1364 1362 1360 1358 1356 1355 1353 1352 1350 1349 1348 1347 1346 1345 1344 1343 1343 1343 1343 1343 1343 1344 1344 1345 1345 1346 1346
1374 1374 1374 1373 1373 1372 1372 1371 1370 1369 1367 1366 1364 1362 1361 1359 1357 1355 1353 1351 1349 1348 1346 1345 1343 1342 1341 1340 1339 1338 1337 1337 1338 1338 1338 1338 1339 1339 1340 1341 1342 1342 1343
1369 1369 1369 1368 1368 1367 1366 1365 1364 1362 1361 1359 1358 1356 1354 1352 1349 1348 1346 1344 1342 1340 1339 1337 1336 1335 1333 1332 1332 1331 1331 1331 1332 1332 1333 1333 1334 1335 1336 1337 1338 1339 1340